DW0026 Weather Reports


Display with metric or nautical units.
time (UTC)temp
F
wind
direction
speed
MPH
gust
MPH
rain 1hr
in
rain 24hr
in
rain mn
in
humidity
%
barometer
mb
20181020081614 35 147 0.0 0.0 0.00 0.00 0.00 60 1024.3
20181020080125 35 147 0.0 0.0 0.00 0.00 0.00 62 1024.4
20181020074708 36 147 0.0 0.0 0.00 0.00 0.00 58 1024.5
20181020073109 36 147 0.0 0.0 0.00 0.00 0.00 58 1024.5
20181020071558 37 147 0.0 0.0 0.00 0.00 0.00 54 1024.5
20181020064548 37 147 0.0 0.0 0.00 0.00 0.00 54 1024.5
20181020063057 38 147 0.0 0.0 0.00 0.00 0.00 52 1024.6
20181020061627 39 147 0.0 0.0 0.00 0.00 0.00 50 1024.6
20181020060211 40 147 0.0 0.0 0.00 0.00 0.00 52 1024.5
20181020054555 40 147 0.0 0.0 0.00 0.00 0.00 50 1024.6
20181020053103 41 147 0.0 0.0 0.00 0.00 0.00 53 1024.6
20181020051548 42 147 0.0 0.0 0.00 0.00 0.00 43 1024.5
20181020050055 42 147 0.0 0.0 0.00 0.00 0.00 44 1024.4
20181020044553 43 147 0.0 0.0 0.00 0.00 0.00 46 1024.3
20181020043052 45 147 0.0 0.0 0.00 0.00 0.00 44 1024.2
20181020041544 45 147 0.0 0.0 0.00 0.00 0.00 42 1024.2
20181020040112 46 147 0.0 0.0 0.00 0.00 0.00 43 1024.2
20181020034550 47 147 0.0 0.0 0.00 0.00 0.00 50 1024.2
20181020033116 48 147 0.0 0.0 0.00 0.00 0.00 45 1024.2
20181020031629 49 147 0.0 0.0 0.00 0.00 0.00 35 1024.1
20181020030044 50 147 0.0 0.0 0.00 0.00 0.00 34 1024.3
20181020024529 51 147 0.0 0.0 0.00 0.00 0.00 31 1024.2
20181020023048 54 147 0.0 0.0 0.00 0.00 0.00 30 1024.0
20181020021545 57 147 0.0 0.0 0.00 0.00 0.00 28 1023.9
20181020020045 59 147 0.0 0.0 0.00 0.00 0.00 26 1023.8
20181020014546 62 147 0.0 0.0 0.00 0.00 0.00 24 1023.7
20181020013119 63 147 0.0 0.0 0.00 0.00 0.00 23 1023.6
20181020011534 64 147 0.0 0.0 0.00 0.00 0.00 23 1023.5
20181020010115 66 147 0.0 8.0 0.00 0.00 0.00 22 1023.4
20181020004624 67 147 2.0 8.0 0.00 0.00 0.00 22 1023.4
20181020003108 67 147 2.0 9.0 0.00 0.00 0.00 21 1023.4
20181020001526 68 147 2.0 7.0 0.00 0.00 0.00 21 1023.4
20181020000050 68 147 1.0 9.0 0.00 0.00 0.00 21 1023.4
20181019234621 69 147 3.0 9.0 0.00 0.00 0.00 21 1023.3
20181019233026 69 147 6.0 11.0 0.00 0.00 0.00 20 1023.4
20181019231523 69 146 3.0 10.0 0.00 0.00 0.00 21 1023.6
20181019230026 70 142 3.0 10.0 0.00 0.00 0.00 21 1023.7
20181019224558 70 141 4.0 9.0 0.00 0.00 0.00 20 1023.8
20181019223022 70 138 4.0 9.0 0.00 0.00 0.00 21 1023.8
20181019221536 69 138 4.0 9.0 0.00 0.00 0.00 21 1024.0
20181019220018 69 138 3.0 10.0 0.00 0.00 0.00 21 1024.2
20181019214515 69 138 4.0 11.0 0.00 0.00 0.00 21 1024.1
20181019213012 69 136 4.0 10.0 0.00 0.00 0.00 21 1024.2
20181019211506 69 135 5.0 11.0 0.00 0.00 0.00 21 1024.4
20181019210005 68 138 5.0 14.0 0.00 0.00 0.00 22 1024.4
20181019204501 68 138 2.0 11.0 0.00 0.00 0.00 24 1024.5
20181019203125 67 138 2.0 11.0 0.00 0.00 0.00 23 1024.8
20181019201702 67 138 3.0 11.0 0.00 0.00 0.00 24 1025.1
20181019200211 67 138 0.0 10.0 0.00 0.00 0.00 24 1025.4
20181019194632 67 137 1.0 10.0 0.00 0.00 0.00 25 1025.6
20181019193115 66 138 0.0 10.0 0.00 0.00 0.00 24 1025.9
20181019191611 66 137 1.0 10.0 0.00 0.00 0.00 26 1026.0
20181019190108 65 138 3.0 9.0 0.00 0.00 0.00 25 1026.2
20181019184612 64 138 0.0 0.0 0.00 0.00 0.00 29 1026.4
20181019183116 61 138 0.0 0.0 0.00 0.00 0.00 31 1026.6
20181019181533 59 138 0.0 0.0 0.00 0.00 0.00 31 1026.9
20181019180030 58 138 0.0 1.0 0.00 0.00 0.00 31 1027.2
20181019174524 56 138 0.0 1.0 0.00 0.00 0.00 35 1027.4
20181019173040 54 138 0.0 0.0 0.00 0.00 0.00 39 1027.5
20181019171518 53 138 0.0 0.0 0.00 0.00 0.00 40 1027.8
20181019170041 52 138 0.0 0.0 0.00 0.00 0.00 42 1027.8
20181019164530 51 138 0.0 0.0 0.00 0.00 0.00 47 1028.0
20181019163001 48 138 0.0 0.0 0.00 0.00 0.00 45 1028.1
20181019161651 47 138 0.0 0.0 0.00 0.00 0.00 47 1027.9
20181019160137 44 138 0.0 0.0 0.00 0.00 0.00 51 1027.9
20181019154645 41 138 0.0 0.0 0.00 0.00 0.00 59 1027.9
20181019153123 37 138 0.0 0.0 0.00 0.00 0.00 68 1027.7
20181019151548 32 138 0.0 0.0 0.00 0.00 0.00 74 1027.5
20181019150056 29 138 0.0 0.0 0.00 0.00 0.00 77 1027.2
20181019144559 27 138 0.0 0.0 0.00 0.00 0.00 78 1027.1
20181019143041 27 138 0.0 0.0 0.00 0.00 0.00 78 1026.9
20181019141547 28 138 0.0 0.0 0.00 0.00 0.00 77 1026.8
20181019140037 28 138 0.0 0.0 0.00 0.00 0.00 82 1026.6
20181019134537 27 138 0.0 0.0 0.00 0.00 0.00 75 1026.6
20181019133049 28 138 0.0 0.0 0.00 0.00 0.00 79 1026.5
20181019131548 28 138 0.0 0.0 0.00 0.00 0.00 76 1026.4
20181019130027 28 138 0.0 0.0 0.00 0.00 0.00 77 1026.3
20181019124525 28 138 0.0 0.0 0.00 0.00 0.00 76 1026.1
20181019123021 28 138 0.0 0.0 0.00 0.00 0.00 74 1026.1
20181019121540 29 138 0.0 0.0 0.00 0.00 0.00 75 1026.0
20181019120104 29 138 0.0 0.0 0.00 0.00 0.00 76 1025.9
20181019114511 29 138 0.0 0.0 0.00 0.00 0.00 73 1025.9
20181019113010 29 138 0.0 0.0 0.00 0.00 0.00 71 1025.8
20181019111527 30 138 0.0 0.0 0.00 0.00 0.00 74 1025.5
20181019110007 30 138 0.0 0.0 0.00 0.00 0.00 72 1025.6
20181019104505 31 138 0.0 0.0 0.00 0.00 0.00 69 1025.4
20181019103106 31 138 0.0 0.0 0.00 0.00 0.00 69 1025.4
20181019101620 31 138 0.0 0.0 0.00 0.00 0.00 70 1025.3
20181019100155 32 138 0.0 0.0 0.00 0.00 0.00 67 1025.3
20181019094650 32 138 0.0 0.0 0.00 0.00 0.00 66 1025.4
20181019093142 32 138 0.0 0.0 0.00 0.00 0.00 63 1025.4
20181019091612 32 138 0.0 0.0 0.00 0.00 0.00 63 1025.5
20181019090116 33 138 0.0 0.0 0.00 0.00 0.00 64 1025.2
20181019084610 33 138 0.0 0.0 0.00 0.00 0.00 66 1025.1
20181019083128 33 138 0.0 0.0 0.00 0.00 0.00 66 1025.2